Vertical_Velocity
-0 1 1 1 0 -1 -1 1 -2 -3 -4 -6 -5 -0 -1 -1 -0 -5 -3 -2 -2 -3 1 6 3 6 12 -0 3 13 7 -12 -5 -0 6 -15 -3 13 4 -4 4 8 -1 8 -0
0 0 0 -0 0 1 2 0 1 2 2 1 0 -6 -4 -7 -7 4 4 2 5 4 -3 5 9 9 -1 -2 6 0 -2 -19 14 4 -4 -11 -2 16 8 4 0 9 10 -3 -0
1 0 1 -0 0 0 0 -1 -2 -3 -3 -2 -1 1 -2 -2 -18 -2 -10 -5 -7 -3 -3 -2 3 6 -5 10 -3 0 -34 35 -9 -0 3 -8 -6 3 2 -8 0 1 20 4 -0
0 -1 -3 -3 -4 -3 -3 -2 -3 -3 -3 -6 -0 0 -3 -1 -16 6 -5 1 -1 -1 -0 -0 5 0 -1 -15 7 -8 -13 15 7 1 -1 -4 19 -20 4 -13 3 4 2 10 4
-3 -3 -2 -2 -1 -1 -2 -2 -4 -0 0 -1 1 -3 3 -5 -10 13 -13 1 2 4 2 -1 1 1 2 6 11 -12 15 7 4 -1 -1 -1 -7 1 -10 -8 7 4 0 9 7
-3 -2 -0 -1 -0 -1 -3 0 1 1 -1 3 2 -5 9 -18 3 0 1 -1 3 3 2 6 2 4 1 4 -2 3 7 6 8 4 1 -6 8 28 -14 3 -1 7 1 5 4
-2 -2 -1 -2 -1 1 -0 2 -0 1 6 -5 1 -4 -3 -10 3 -6 6 -1 2 0 0 7 10 4 5 5 9 3 -9 9 -11 -4 -4 21 -5 -59 11 13 -3 15 4 4 9
-1 -2 -1 -1 1 1 -1 -1 0 2 -3 -3 6 4 -18 -4 -6 2 -2 -1 3 1 2 5 14 4 5 4 2 6 8 3 -2 8 2 35 -40 -7 15 1 -3 6 5 2 5
-1 -0 -0 -1 -1 3 -2 -0 1 -2 -1 -5 -3 4 -10 -0 -3 -0 -2 -0 4 4 2 3 7 4 5 2 -3 3 -3 3 -3 7 -0 4 -33 6 4 -8 -10 0 9 6 1
-0 0 -0 -3 -1 -2 2 1 -1 -3 -5 -5 7 21 3 3 -9 6 2 1 0 5 1 -0 2 4 5 1 -13 -8 -3 -7 -3 -9 17 12 -33 4 6 -3 -8 -1 -3 4 -1
-1 1 -2 -5 2 1 -7 -6 -4 -4 11 -3 -7 -1 3 7 -0 -2 -0 2 -1 2 -1 7 4 -2 -9 6 15 2 5 9 -2 -5 21 7 -11 -1 13 -13 -11 -7 -6 -3 -1
-3 -0 -2 -3 -0 0 3 1 -3 3 -6 -1 8 -10 6 10 -13 1 -1 -0 2 -1 5 2 -1 -6 3 2 -0 1 -7 -23 7 2 29 3 -4 10 10 -2 3 8 -5 -5 4
-4 -1 -1 -1 -2 3 -2 -0 -0 -1 3 -3 -3 -4 -4 0 1 -3 -0 -0 -0 3 4 -1 3 7 9 -0 1 -1 4 -5 4 2 -6 5 -33 -11 -20 -2 6 -4 -7 -1 -9
-2 -1 -0 -3 -5 -0 -1 -2 -3 -2 -2 -4 -2 -2 -3 -4 -0 0 3 1 -0 0 0 -2 6 1 -0 -1 7 4 6 8 -7 3 -0 15 -19 1 -9 -13 -5 -5 -4 -10 -10
1 -1 -1 0 -0 1 -4 -4 -3 -6 -4 1 -1 -0 -0 1 1 3 4 -1 -1 2 3 -6 2 6 -3 0 9 -11 3 4 5 0 7 -17 15 -30 -8 -7 -21 -13 -3 -3 -4
-3 -3 -3 -4 -2 -4 -3 -3 -2 -7 -11 -2 -6 -4 -2 0 -0 1 1 -2 -3 -1 0 -5 4 -5 -2 1 -4 -0 -3 -2 4 4 7 -23 11 -16 -12 -29 9 4 -3 1 -1
-7 -4 -4 -2 -1 -2 -5 -5 -4 -6 -3 -6 -3 -2 -0 -1 -5 2 4 3 1 0 -3 4 -2 2 -0 7 -0 1 -4 -5 -5 6 -12 3 16 -37 -18 -12 -9 -4 1 6 4
-2 0 -4 -2 -7 -4 -7 -1 -5 -2 -2 -2 -2 0 -2 5 -0 -0 0 -2 6 6 5 0 -3 3 3 6 5 -2 -5 -4 1 -1 -0 -0 -3 -55 2 1 -6 -4 -10 -2 -6
-6 -2 -9 -5 -7 -7 -6 -7 -4 -2 -1 -2 -1 -4 -4 -3 0 -1 -5 -0 3 4 1 -0 2 5 4 3 -6 5 4 1 7 -2 16 -9 -50 -9 -9 -13 -5 1 3 -8 2
-0 -4 -4 -2 -3 -2 -1 -2 1 0 -1 -1 -0 -3 -1 -1 2 -1 -5 -4 -1 -1 3 -2 -16 5 3 4 -3 0 -1 -8 9 1 0 -2 -4 -17 -6 -3 11 6 2 9 14
-2 -6 -3 0 -3 -2 -1 -2 -2 -0 -0 -2 -1 -2 -4 0 1 1 -3 -1 5 -2 -5 -6 -0 -12 -2 -0 -5 -5 6 -7 5 7 -2 -1 -19 -3 -17 -9 16 10 4 1 -1
1 -1 2 1 -7 -2 -3 -2 -3 4 3 2 -1 -1 -2 2 0 2 -2 -2 -3 2 0 -2 -0 -5 -8 0 -1 -5 1 -6 4 -12 -6 2 -34 2 15 -3 8 1 3 4 -4
-1 4 1 -4 -2 -4 -1 -0 -2 0 -1 -4 -1 -1 3 -1 -3 3 1 -0 1 -3 -0 -1 2 -4 -3 1 4 -6 5 7 1 1 -7 9 -3 11 -5 4 12 -6 3 2 4
2 1 -3 3 1 -0 4 -6 -2 -6 -5 2 -2 -1 0 -1 1 -4 0 -0 1 -1 6 1 1 -3 -7 -3 6 -3 1 12 15 5 -7 -4 -26 -19 -7 -3 -3 -2 3 4 2
2 -2 -2 -3 -4 2 5 10 0 -0 2 2 -9 1 1 1 -0 -10 2 2 0 2 4 -1 -1 -3 6 1 1 -4 -2 -3 10 2 13 -33 5 5 -6 -6 -4 -7 -3 1 -4
4 3 -1 4 0 3 8 -5 2 8 11 -1 -9 7 4 -8 -6 4 -1 2 2 2 5 1 -7 -3 -3 -2 1 -2 -4 1 4 4 2 3 -5 -5 1 2 2 7 -1 3 -11
2 2 5 0 -2 4 -2 -4 -4 5 -5 3 -2 2 -4 5 2 5 4 5 5 -1 2 6 0 -0 -15 1 -3 -5 9 3 3 3 -0 -5 -3 -3 -3 3 8 -2 1 -8 -14
Height
3129 3125 3121 3117 3113 3108 3104 3099 3093 3087 3081 3077 3074 3072 3069 3068 3067 3063 3057 3057 3055 3053 3049 3050 3048 3052 3051 3052 3055 3056 3053 3041 3039 3047 3050 3062 3068 3073 3073 3072 3075 3078 3079 3081 3080
3126 3121 3116 3112 3107 3102 3096 3090 3084 3079 3073 3068 3064 3061 3062 3058 3056 3055 3051 3047 3046 3045 3043 3042 3043 3042 3040 3043 3045 3044 3038 3026 3040 3046 3047 3057 3062 3066 3067 3068 3069 3072 3075 3074 3075
3121 3117 3111 3106 3100 3094 3088 3083 3078 3073 3069 3064 3058 3052 3052 3052 3048 3043 3044 3043 3039 3036 3035 3035 3036 3033 3031 3034 3034 3035 3022 3033 3035 3040 3047 3048 3051 3058 3058 3059 3064 3066 3071 3068 3068
3116 3111 3104 3098 3092 3085 3080 3074 3070 3066 3062 3058 3053 3047 3042 3047 3049 3040 3032 3034 3032 3030 3028 3026 3027 3026 3023 3021 3026 3025 3022 3027 3031 3035 3039 3039 3045 3046 3048 3052 3060 3060 3061 3061 3062
3109 3103 3096 3090 3083 3077 3072 3067 3062 3058 3055 3051 3046 3040 3034 3034 3040 3037 3029 3025 3023 3021 3021 3019 3018 3020 3015 3015 3019 3017 3015 3020 3024 3029 3030 3036 3032 3036 3038 3046 3053 3053 3054 3056 3057
3102 3095 3089 3082 3075 3069 3063 3057 3053 3048 3045 3043 3037 3034 3026 3026 3029 3027 3023 3020 3015 3012 3011 3011 3010 3010 3008 3008 3010 3010 3013 3013 3018 3020 3024 3025 3024 3034 3028 3041 3044 3047 3049 3051 3053
3095 3088 3081 3074 3066 3060 3053 3047 3041 3037 3036 3033 3027 3024 3013 3024 3018 3014 3011 3008 3006 3003 3002 3003 3004 3003 3001 3002 3005 3003 3005 3006 3007 3013 3015 3022 3016 3015 3024 3031 3034 3039 3043 3046 3049
3088 3080 3073 3065 3057 3050 3044 3038 3031 3025 3023 3023 3019 3014 3001 3010 3007 3004 3000 3001 2998 2997 2994 2996 2997 2995 2995 2996 3000 3000 3000 2998 2998 3007 3010 3012 2999 3007 3017 3023 3025 3030 3035 3040 3043
3080 3073 3064 3056 3050 3041 3035 3028 3022 3014 3011 3012 3008 3005 3000 2999 2998 2997 2996 2994 2993 2990 2989 2989 2989 2988 2992 2991 2994 2995 2991 2992 2994 2998 3002 3006 2992 3000 3010 3015 3016 3021 3027 3032 3036
3073 3064 3055 3048 3044 3032 3026 3020 3013 3004 3002 3003 2998 3003 2999 2995 2991 2990 2989 2986 2985 2984 2985 2987 2987 2984 2985 2988 2985 2989 2989 2989 2988 2993 2991 2993 2983 2995 3002 3008 3009 3013 3019 3023 3028
3065 3055 3047 3041 3038 3029 3015 3011 3008 3000 2998 3000 2994 2994 2991 2985 2984 2983 2980 2979 2981 2981 2982 2984 2983 2979 2981 2983 2986 2988 2986 2982 2981 2988 2988 2983 2982 2987 2995 3000 3002 3003 3008 3014 3019
3058 3048 3039 3033 3029 3023 3016 3009 3003 3000 2990 2990 2990 2985 2988 2981 2976 2978 2975 2975 2978 2977 2978 2977 2974 2976 2979 2982 2983 2983 2981 2972 2976 2982 2981 2979 2974 2978 2982 2986 2991 2996 3000 3005 3012
3050 3042 3032 3024 3018 3013 3008 3004 2999 2993 2991 2986 2984 2982 2980 2979 2976 2975 2975 2974 2976 2976 2975 2974 2975 2975 2978 2979 2979 2977 2976 2977 2978 2975 2976 2975 2965 2972 2975 2978 2980 2985 2990 2997 3003
3043 3035 3025 3016 3010 3003 3000 2995 2991 2988 2986 2985 2982 2979 2978 2977 2977 2974 2974 2977 2976 2976 2975 2974 2973 2972 2973 2975 2976 2974 2974 2975 2975 2975 2973 2976 2958 2960 2966 2969 2972 2976 2980 2985 2991
3036 3028 3020 3010 3002 2997 2995 2989 2986 2987 2991 2987 2983 2982 2980 2981 2979 2978 2976 2975 2976 2975 2977 2975 2973 2972 2971 2971 2972 2970 2970 2970 2971 2971 2971 2967 2966 2950 2958 2959 2962 2967 2971 2976 2982
3027 3018 3010 3003 2996 2993 2988 2986 2986 2990 2990 2987 2984 2982 2980 2977 2979 2979 2978 2975 2974 2971 2971 2971 2971 2969 2968 2967 2968 2966 2965 2963 2963 2965 2964 2958 2961 2945 2949 2949 2954 2960 2964 2969 2975
3022 3012 3005 2998 2994 2990 2987 2986 2989 2987 2990 2986 2981 2979 2976 2973 2971 2974 2975 2973 2972 2970 2966 2967 2965 2964 2963 2963 2962 2962 2962 2962 2962 2958 2948 2948 2951 2936 2941 2943 2946 2951 2956 2962 2968
3016 3009 3004 2997 2993 2989 2988 2989 2987 2987 2986 2984 2981 2979 2978 2976 2972 2970 2972 2970 2969 2967 2964 2963 2963 2961 2960 2960 2960 2958 2961 2966 2963 2962 2950 2946 2940 2926 2933 2937 2939 2943 2946 2951 2957
3005 3001 2997 2992 2990 2988 2988 2986 2985 2984 2983 2980 2978 2975 2973 2973 2973 2969 2969 2968 2965 2964 2965 2962 2955 2956 2957 2957 2958 2957 2954 2959 2956 2952 2951 2946 2931 2925 2928 2926 2929 2933 2938 2942 2947
2999 2995 2993 2989 2987 2986 2986 2984 2982 2981 2979 2977 2975 2975 2971 2970 2968 2967 2964 2966 2964 2963 2962 2962 2957 2951 2951 2953 2954 2956 2954 2952 2951 2947 2941 2932 2925 2920 2922 2920 2924 2927 2930 2935 2940
2993 2989 2989 2986 2985 2983 2981 2979 2978 2977 2976 2975 2972 2972 2970 2968 2967 2966 2963 2962 2962 2960 2960 2961 2960 2952 2952 2952 2950 2951 2951 2950 2947 2939 2931 2931 2915 2917 2916 2918 2920 2921 2922 2924 2926
2990 2987 2983 2981 2983 2979 2978 2975 2975 2973 2972 2971 2968 2966 2964 2964 2961 2960 2958 2958 2959 2958 2958 2957 2956 2952 2950 2949 2949 2949 2949 2948 2947 2938 2931 2922 2902 2913 2912 2910 2911 2914 2914 2915 2916
2985 2982 2977 2978 2975 2975 2974 2973 2970 2968 2967 2965 2964 2962 2961 2959 2960 2954 2953 2953 2954 2954 2954 2953 2953 2951 2946 2948 2948 2947 2945 2942 2942 2937 2926 2918 2905 2904 2905 2905 2905 2905 2907 2908 2909
2983 2979 2974 2969 2970 2969 2968 2966 2965 2964 2961 2958 2957 2956 2957 2954 2954 2952 2950 2950 2950 2951 2951 2950 2949 2949 2948 2946 2946 2941 2937 2937 2937 2934 2925 2917 2910 2899 2901 2901 2900 2898 2899 2900 2901
2979 2974 2972 2966 2965 2965 2963 2960 2958 2957 2955 2953 2950 2949 2949 2947 2944 2943 2946 2947 2946 2946 2947 2947 2944 2944 2941 2941 2940 2935 2928 2926 2926 2925 2923 2907 2906 2904 2900 2898 2895 2892 2891 2893 2893
2974 2970 2965 2961 2962 2960 2958 2954 2955 2953 2951 2947 2945 2944 2943 2937 2940 2940 2940 2940 2939 2941 2941 2941 2939 2938 2933 2935 2933 2928 2923 2921 2921 2917 2912 2905 2900 2898 2896 2894 2893 2888 2886 2885 2888
2967 2964 2960 2954 2953 2953 2951 2950 2948 2948 2944 2943 2940 2938 2935 2934 2933 2933 2934 2935 2935 2935 2937 2937 2936 2935 2927 2929 2928 2923 2917 2916 2916 2913 2909 2906 2901 2895 2893 2891 2890 2883 2880 2880 2882